Year,Month,Day,Hour,Minute,Value (Times are PST for temperature in C)
2009,10,11,00,00,3.70
2009,10,11,00,01,3.60
2009,10,11,00,02,3.60
2009,10,11,00,03,3.60
2009,10,11,00,04,3.70
2009,10,11,00,05,3.70
2009,10,11,00,06,3.80
2009,10,11,00,07,3.80
2009,10,11,00,08,3.90
2009,10,11,00,09,3.90
2009,10,11,00,10,3.90
2009,10,11,00,11,3.90
2009,10,11,00,12,3.90
2009,10,11,00,13,3.90
2009,10,11,00,14,3.90
2009,10,11,00,15,3.90
2009,10,11,00,16,4.00
2009,10,11,00,17,4.00
2009,10,11,00,18,4.10
2009,10,11,00,19,4.10
2009,10,11,00,20,4.10
2009,10,11,00,21,4.10
2009,10,11,00,22,4.20
2009,10,11,00,23,4.20
2009,10,11,00,24,4.20
2009,10,11,00,25,4.20
2009,10,11,00,26,4.20
2009,10,11,00,27,4.20
2009,10,11,00,28,4.20
2009,10,11,00,29,4.30
2009,10,11,00,30,4.40
2009,10,11,00,31,4.40
2009,10,11,00,32,4.50
2009,10,11,00,33,4.60
2009,10,11,00,34,4.60
2009,10,11,00,35,4.60
2009,10,11,00,36,4.70
2009,10,11,00,37,4.70
2009,10,11,00,38,4.70
2009,10,11,00,39,4.80
2009,10,11,00,40,4.80
2009,10,11,00,41,4.80
2009,10,11,00,42,4.90
2009,10,11,00,43,4.90
2009,10,11,00,44,4.90
2009,10,11,00,45,5.00
2009,10,11,00,46,5.10
2009,10,11,00,47,5.10
2009,10,11,00,48,5.20
2009,10,11,00,49,5.30
2009,10,11,00,50,5.40
2009,10,11,00,51,5.50
2009,10,11,00,52,5.60
2009,10,11,00,53,5.70
2009,10,11,00,54,5.70
2009,10,11,00,55,5.80
2009,10,11,00,56,5.90
2009,10,11,00,57,5.90
2009,10,11,00,58,6.00
2009,10,11,00,59,6.20
2009,10,11,01,00,6.30
2009,10,11,01,01,6.30
2009,10,11,01,02,6.50
2009,10,11,01,03,6.60
2009,10,11,01,04,6.70
2009,10,11,01,05,6.90
2009,10,11,01,06,7.00
2009,10,11,01,07,7.20
2009,10,11,01,08,7.20
2009,10,11,01,09,7.40
2009,10,11,01,10,7.50
2009,10,11,01,11,7.50
2009,10,11,01,12,7.60
2009,10,11,01,13,7.60
2009,10,11,01,14,7.70
2009,10,11,01,15,7.70
2009,10,11,01,16,7.70
2009,10,11,01,17,7.70
2009,10,11,01,18,7.70
2009,10,11,01,19,7.70
2009,10,11,01,20,7.70
2009,10,11,01,21,7.70
2009,10,11,01,22,7.70
2009,10,11,01,23,7.70
2009,10,11,01,24,7.70
2009,10,11,01,25,7.70
2009,10,11,01,26,7.70
2009,10,11,01,27,7.70
2009,10,11,01,28,7.70
2009,10,11,01,29,7.80
2009,10,11,01,30,7.80
2009,10,11,01,31,7.80
2009,10,11,01,32,7.80
2009,10,11,01,33,7.80
2009,10,11,01,34,7.80
2009,10,11,01,35,7.80
2009,10,11,01,36,7.80
2009,10,11,01,37,7.80
2009,10,11,01,38,7.80
2009,10,11,01,39,7.80
2009,10,11,01,40,7.80
2009,10,11,01,41,7.90
2009,10,11,01,42,7.90
2009,10,11,01,43,8.00
2009,10,11,01,44,8.00
2009,10,11,01,45,8.10
2009,10,11,01,46,8.10
2009,10,11,01,47,8.10
2009,10,11,01,48,8.10
2009,10,11,01,49,8.10
2009,10,11,01,50,8.10
2009,10,11,01,51,8.10
2009,10,11,01,52,8.10
2009,10,11,01,53,8.10
2009,10,11,01,54,8.10
2009,10,11,01,55,8.10
2009,10,11,01,56,8.10
2009,10,11,01,57,8.10
2009,10,11,01,58,8.10
2009,10,11,01,59,8.10
2009,10,11,02,00,8.10
2009,10,11,02,01,8.10
2009,10,11,02,02,8.10
2009,10,11,02,03,8.10
2009,10,11,02,04,8.10
2009,10,11,02,05,8.10
2009,10,11,02,06,8.10
2009,10,11,02,07,8.10
2009,10,11,02,08,8.00
2009,10,11,02,09,8.00
2009,10,11,02,10,8.00
2009,10,11,02,11,7.90
2009,10,11,02,12,7.90
2009,10,11,02,13,7.90
2009,10,11,02,14,7.80
2009,10,11,02,15,7.80
2009,10,11,02,16,7.90
2009,10,11,02,17,7.90
2009,10,11,02,18,7.90
2009,10,11,02,19,7.90
2009,10,11,02,20,7.90
2009,10,11,02,21,7.90
2009,10,11,02,22,8.00
2009,10,11,02,23,8.00
2009,10,11,02,24,8.10
2009,10,11,02,25,8.10
2009,10,11,02,26,8.10
2009,10,11,02,27,8.10
2009,10,11,02,28,8.20
2009,10,11,02,29,8.20
2009,10,11,02,30,8.20
2009,10,11,02,31,8.20
2009,10,11,02,32,8.20
2009,10,11,02,33,8.20
2009,10,11,02,34,8.20
2009,10,11,02,35,8.20
2009,10,11,02,36,8.20
2009,10,11,02,37,8.30
2009,10,11,02,38,8.30
2009,10,11,02,39,8.30
2009,10,11,02,40,8.30
2009,10,11,02,41,8.30
2009,10,11,02,42,8.30
2009,10,11,02,43,8.30
2009,10,11,02,44,8.30
2009,10,11,02,45,8.30
2009,10,11,02,46,8.20
2009,10,11,02,47,8.20
2009,10,11,02,48,8.20
2009,10,11,02,49,8.20
2009,10,11,02,50,8.20
2009,10,11,02,51,8.20
2009,10,11,02,52,8.20
2009,10,11,02,53,8.10
2009,10,11,02,54,8.10
2009,10,11,02,55,8.10
2009,10,11,02,56,8.20
2009,10,11,02,57,8.20
2009,10,11,02,58,8.20
2009,10,11,02,59,8.20
2009,10,11,03,00,8.20
2009,10,11,03,01,8.20
2009,10,11,03,02,8.20
2009,10,11,03,03,8.20
2009,10,11,03,04,8.20
2009,10,11,03,05,8.20
2009,10,11,03,06,8.20
2009,10,11,03,07,8.10
2009,10,11,03,08,8.10
2009,10,11,03,09,8.10
2009,10,11,03,10,8.10
2009,10,11,03,11,8.10
2009,10,11,03,12,8.10
2009,10,11,03,13,8.10
2009,10,11,03,14,8.10
2009,10,11,03,15,8.10
2009,10,11,03,16,8.10
2009,10,11,03,17,8.10
2009,10,11,03,18,8.10
2009,10,11,03,19,8.10
2009,10,11,03,20,8.10
2009,10,11,03,21,8.10
2009,10,11,03,22,8.10
2009,10,11,03,23,8.10
2009,10,11,03,24,8.10
2009,10,11,03,25,8.00
2009,10,11,03,26,8.00
2009,10,11,03,27,8.00
2009,10,11,03,28,8.00
2009,10,11,03,29,8.00
2009,10,11,03,30,7.90
2009,10,11,03,31,7.90
2009,10,11,03,32,8.00
2009,10,11,03,33,8.00
2009,10,11,03,34,8.00
2009,10,11,03,35,8.00
2009,10,11,03,36,8.00
2009,10,11,03,37,8.00
2009,10,11,03,38,8.00
2009,10,11,03,39,8.00
2009,10,11,03,40,7.90
2009,10,11,03,41,7.90
2009,10,11,03,42,7.90
2009,10,11,03,43,7.90
2009,10,11,03,44,7.90
2009,10,11,03,45,7.90
2009,10,11,03,46,7.90
2009,10,11,03,47,7.80
2009,10,11,03,48,7.80
2009,10,11,03,49,7.80
2009,10,11,03,50,7.80
2009,10,11,03,51,7.80
2009,10,11,03,52,7.80
2009,10,11,03,53,7.70
2009,10,11,03,54,7.70
2009,10,11,03,55,7.70
2009,10,11,03,56,7.70
2009,10,11,03,57,7.70
2009,10,11,03,58,7.70
2009,10,11,03,59,7.70
2009,10,11,04,00,7.60
2009,10,11,04,01,7.60
2009,10,11,04,02,7.60
2009,10,11,04,03,7.60
2009,10,11,04,04,7.60
2009,10,11,04,05,7.60
2009,10,11,04,06,7.60
2009,10,11,04,07,7.60
2009,10,11,04,08,7.50
2009,10,11,04,09,7.50
2009,10,11,04,10,7.50
2009,10,11,04,11,7.50
2009,10,11,04,12,7.40
2009,10,11,04,13,7.40
2009,10,11,04,14,7.40
2009,10,11,04,15,7.30
2009,10,11,04,16,7.30
2009,10,11,04,17,7.30
2009,10,11,04,18,7.30
2009,10,11,04,19,7.30
2009,10,11,04,20,7.30
2009,10,11,04,21,7.30
2009,10,11,04,22,7.30
2009,10,11,04,23,7.30
2009,10,11,04,24,7.30
2009,10,11,04,25,7.30
2009,10,11,04,26,7.30
2009,10,11,04,27,7.40
2009,10,11,04,28,7.40
2009,10,11,04,29,7.40
2009,10,11,04,30,7.40
2009,10,11,04,31,7.40
2009,10,11,04,32,7.50
2009,10,11,04,33,7.50
2009,10,11,04,34,7.50
2009,10,11,04,35,7.50
2009,10,11,04,36,7.50
2009,10,11,04,37,7.60
2009,10,11,04,38,7.60
2009,10,11,04,39,7.60
2009,10,11,04,40,7.60
2009,10,11,04,41,7.50
2009,10,11,04,42,7.50
2009,10,11,04,43,7.50
2009,10,11,04,44,7.50
2009,10,11,04,45,7.50
2009,10,11,04,46,7.50
2009,10,11,04,47,7.50
2009,10,11,04,48,7.40
2009,10,11,04,49,7.40
2009,10,11,04,50,7.40
2009,10,11,04,51,7.40
2009,10,11,04,52,7.40
2009,10,11,04,53,7.30
2009,10,11,04,54,7.30
2009,10,11,04,55,7.30
2009,10,11,04,56,7.30
2009,10,11,04,57,7.20
2009,10,11,04,58,7.20
2009,10,11,04,59,7.20
2009,10,11,05,00,7.20
2009,10,11,05,01,7.10
2009,10,11,05,02,7.10
2009,10,11,05,03,7.00
2009,10,11,05,04,7.00
2009,10,11,05,05,6.90
2009,10,11,05,06,6.90
2009,10,11,05,07,6.80
2009,10,11,05,08,6.80
2009,10,11,05,09,6.80
2009,10,11,05,10,6.70
2009,10,11,05,11,6.70
2009,10,11,05,12,6.70
2009,10,11,05,13,6.70
2009,10,11,05,14,6.60
2009,10,11,05,15,6.60
2009,10,11,05,16,6.60
2009,10,11,05,17,6.60
2009,10,11,05,18,6.50
2009,10,11,05,19,6.50
2009,10,11,05,20,6.50
2009,10,11,05,21,6.40
2009,10,11,05,22,6.40
2009,10,11,05,23,6.40
2009,10,11,05,24,6.40
2009,10,11,05,25,6.30
2009,10,11,05,26,6.30
2009,10,11,05,27,6.30
2009,10,11,05,28,6.30
2009,10,11,05,29,6.30
2009,10,11,05,30,6.30
2009,10,11,05,31,6.20
2009,10,11,05,32,6.20
2009,10,11,05,33,6.20
2009,10,11,05,34,6.20
2009,10,11,05,35,6.20
2009,10,11,05,36,6.10
2009,10,11,05,37,6.10
2009,10,11,05,38,6.10
2009,10,11,05,39,6.00
2009,10,11,05,40,6.00
2009,10,11,05,41,6.00
2009,10,11,05,42,5.90
2009,10,11,05,43,5.90
2009,10,11,05,44,5.90
2009,10,11,05,45,5.90
2009,10,11,05,46,5.80
2009,10,11,05,47,5.80
2009,10,11,05,48,5.80
2009,10,11,05,49,5.80
2009,10,11,05,50,5.80
2009,10,11,05,51,5.80
2009,10,11,05,52,5.80
2009,10,11,05,53,5.80
2009,10,11,05,54,5.70
2009,10,11,05,55,5.70
2009,10,11,05,56,5.70
2009,10,11,05,57,5.70
2009,10,11,05,58,5.70
2009,10,11,05,59,5.70
2009,10,11,06,00,5.60
2009,10,11,06,01,5.60
2009,10,11,06,02,5.60
2009,10,11,06,03,5.60
2009,10,11,06,04,5.60
2009,10,11,06,05,5.60
2009,10,11,06,06,5.60
2009,10,11,06,07,5.60
2009,10,11,06,08,5.60
2009,10,11,06,09,5.60
2009,10,11,06,10,5.50
2009,10,11,06,11,5.50
2009,10,11,06,12,5.50
2009,10,11,06,13,5.50
2009,10,11,06,14,5.40
2009,10,11,06,15,5.40
2009,10,11,06,16,5.40
2009,10,11,06,17,5.40
2009,10,11,06,18,5.40
2009,10,11,06,19,5.30
2009,10,11,06,20,5.30
2009,10,11,06,21,5.30
2009,10,11,06,22,5.30
2009,10,11,06,23,5.30
2009,10,11,06,24,5.20
2009,10,11,06,25,5.20
2009,10,11,06,26,5.20
2009,10,11,06,27,5.20
2009,10,11,06,28,5.20
2009,10,11,06,29,5.20
2009,10,11,06,30,5.20
2009,10,11,06,31,5.20
2009,10,11,06,32,5.20
2009,10,11,06,33,5.20
2009,10,11,06,34,5.20
2009,10,11,06,35,5.20
2009,10,11,06,36,5.20
2009,10,11,06,37,5.10
2009,10,11,06,38,5.10
2009,10,11,06,39,5.10
2009,10,11,06,40,5.10
2009,10,11,06,41,5.10
2009,10,11,06,42,5.10
2009,10,11,06,43,5.10
2009,10,11,06,44,5.10
2009,10,11,06,45,5.10
2009,10,11,06,46,5.00
2009,10,11,06,47,5.00
2009,10,11,06,48,5.00
2009,10,11,06,49,5.00
2009,10,11,06,50,5.00
2009,10,11,06,51,5.00
2009,10,11,06,52,5.10
2009,10,11,06,53,5.00
2009,10,11,06,54,5.10
2009,10,11,06,55,5.10
2009,10,11,06,56,5.10
2009,10,11,06,57,5.10
2009,10,11,06,58,5.10
2009,10,11,06,59,5.10
2009,10,11,07,00,5.10
2009,10,11,07,01,5.10
2009,10,11,07,02,5.10
2009,10,11,07,03,5.10
2009,10,11,07,04,5.10
2009,10,11,07,05,5.10
2009,10,11,07,06,5.20
2009,10,11,07,07,5.20
2009,10,11,07,08,5.20
2009,10,11,07,09,5.20
2009,10,11,07,10,5.20
2009,10,11,07,11,5.20
2009,10,11,07,12,5.20
2009,10,11,07,13,5.20
2009,10,11,07,14,5.20
2009,10,11,07,15,5.20
2009,10,11,07,16,5.10
2009,10,11,07,17,5.10
2009,10,11,07,18,5.10
2009,10,11,07,19,5.10
2009,10,11,07,20,5.00
2009,10,11,07,21,5.00
2009,10,11,07,22,4.90
2009,10,11,07,23,4.90
2009,10,11,07,24,4.90
2009,10,11,07,25,4.90
2009,10,11,07,26,4.90
2009,10,11,07,27,4.90
2009,10,11,07,28,4.90
2009,10,11,07,29,4.80
2009,10,11,07,30,4.80
2009,10,11,07,31,4.80
2009,10,11,07,32,4.80
2009,10,11,07,33,4.80
2009,10,11,07,34,4.80
2009,10,11,07,35,4.80
2009,10,11,07,36,4.80
2009,10,11,07,37,4.80
2009,10,11,07,38,4.80
2009,10,11,07,39,4.80
2009,10,11,07,40,4.80
2009,10,11,07,41,4.80
2009,10,11,07,42,4.80
2009,10,11,07,43,4.80
2009,10,11,07,44,4.80
2009,10,11,07,45,4.80
2009,10,11,07,46,4.80
2009,10,11,07,47,4.80
2009,10,11,07,48,4.80
2009,10,11,07,49,4.80
2009,10,11,07,50,4.80
2009,10,11,07,51,4.90
2009,10,11,07,52,4.90
2009,10,11,07,53,4.90
2009,10,11,07,54,4.90
2009,10,11,07,55,4.90
2009,10,11,07,56,4.90
2009,10,11,07,57,5.00
2009,10,11,07,58,5.00
2009,10,11,07,59,5.00
2009,10,11,08,00,5.00
2009,10,11,08,01,5.00
2009,10,11,08,02,5.00
2009,10,11,08,03,5.00
2009,10,11,08,04,5.00
2009,10,11,08,05,5.10
2009,10,11,08,06,5.10
2009,10,11,08,07,5.10
2009,10,11,08,08,5.10
2009,10,11,08,09,5.20
2009,10,11,08,10,5.20
2009,10,11,08,11,5.20
2009,10,11,08,12,5.20
2009,10,11,08,13,5.20
2009,10,11,08,14,5.30
2009,10,11,08,15,5.30
2009,10,11,08,16,5.40
2009,10,11,08,17,5.50
2009,10,11,08,18,5.60
2009,10,11,08,19,5.60
2009,10,11,08,20,5.60
2009,10,11,08,21,5.70
2009,10,11,08,22,5.70
2009,10,11,08,23,5.80
2009,10,11,08,24,5.80
2009,10,11,08,25,5.80
2009,10,11,08,26,5.80
2009,10,11,08,27,5.80
2009,10,11,08,28,5.80
2009,10,11,08,29,5.80
2009,10,11,08,30,5.80
2009,10,11,08,31,5.80
2009,10,11,08,32,5.80
2009,10,11,08,33,5.80
2009,10,11,08,34,5.90
2009,10,11,08,35,5.90
2009,10,11,08,36,5.90
2009,10,11,08,37,5.90
2009,10,11,08,38,5.90
2009,10,11,08,39,5.90
2009,10,11,08,40,5.90
2009,10,11,08,41,6.00
2009,10,11,08,42,6.00
2009,10,11,08,43,6.00
2009,10,11,08,44,6.00
2009,10,11,08,45,6.10
2009,10,11,08,46,6.10
2009,10,11,08,47,6.10
2009,10,11,08,48,6.20
2009,10,11,08,49,6.20
2009,10,11,08,50,6.30
2009,10,11,08,51,6.30
2009,10,11,08,52,6.30
2009,10,11,08,53,6.40
2009,10,11,08,54,6.50
2009,10,11,08,55,6.60
2009,10,11,08,56,6.70
2009,10,11,08,57,6.70
2009,10,11,08,58,6.80
2009,10,11,08,59,6.80
2009,10,11,09,00,6.90
2009,10,11,09,01,7.00
2009,10,11,09,02,7.10
2009,10,11,09,03,7.10
2009,10,11,09,04,7.20
2009,10,11,09,05,7.20
2009,10,11,09,06,7.30
2009,10,11,09,07,7.40
2009,10,11,09,08,7.40
2009,10,11,09,09,7.50
2009,10,11,09,10,7.50
2009,10,11,09,11,7.60
2009,10,11,09,12,7.70
2009,10,11,09,13,7.70
2009,10,11,09,14,7.80
2009,10,11,09,15,7.80
2009,10,11,09,16,7.80
2009,10,11,09,17,7.90
2009,10,11,09,18,7.90
2009,10,11,09,19,8.00
2009,10,11,09,20,8.00
2009,10,11,09,21,8.10
2009,10,11,09,22,8.10
2009,10,11,09,23,8.10
2009,10,11,09,24,8.20
2009,10,11,09,25,8.20
2009,10,11,09,26,8.30
2009,10,11,09,27,8.30
2009,10,11,09,28,8.40
2009,10,11,09,29,8.40
2009,10,11,09,30,8.50
2009,10,11,09,31,8.50
2009,10,11,09,32,8.60
2009,10,11,09,33,8.60
2009,10,11,09,34,8.70
2009,10,11,09,35,8.70
2009,10,11,09,36,8.80
2009,10,11,09,37,8.80
2009,10,11,09,38,8.80
2009,10,11,09,39,8.80
2009,10,11,09,40,8.90
2009,10,11,09,41,8.90
2009,10,11,09,42,8.90
2009,10,11,09,43,9.00
2009,10,11,09,44,9.00
2009,10,11,09,45,9.00
2009,10,11,09,46,9.10
2009,10,11,09,47,9.10
2009,10,11,09,48,9.10
2009,10,11,09,49,9.10
2009,10,11,09,50,9.10
2009,10,11,09,51,9.20
2009,10,11,09,52,9.20
2009,10,11,09,53,9.20
2009,10,11,09,54,9.20
2009,10,11,09,55,9.20
2009,10,11,09,56,9.20
2009,10,11,09,57,9.20
2009,10,11,09,58,9.20
2009,10,11,09,59,9.30
2009,10,11,10,00,9.30
2009,10,11,10,01,9.30
2009,10,11,10,02,9.30
2009,10,11,10,03,9.40
2009,10,11,10,04,9.40
2009,10,11,10,05,9.40
2009,10,11,10,06,9.40
2009,10,11,10,07,9.40
2009,10,11,10,08,9.40
2009,10,11,10,09,9.40
2009,10,11,10,10,9.50
2009,10,11,10,11,9.50
2009,10,11,10,12,9.50
2009,10,11,10,13,9.60
2009,10,11,10,14,9.60
2009,10,11,10,15,9.60
2009,10,11,10,16,9.70
2009,10,11,10,17,9.70
2009,10,11,10,18,9.70
2009,10,11,10,19,9.70
2009,10,11,10,20,9.70
2009,10,11,10,21,9.70
2009,10,11,10,22,9.70
2009,10,11,10,23,9.70
2009,10,11,10,24,9.80
2009,10,11,10,25,9.80
2009,10,11,10,26,9.80
2009,10,11,10,27,9.80
2009,10,11,10,28,9.80
2009,10,11,10,29,9.80
2009,10,11,10,30,9.90
2009,10,11,10,31,9.90
2009,10,11,10,32,9.90
2009,10,11,10,33,10.00
2009,10,11,10,34,10.00
2009,10,11,10,35,10.00
2009,10,11,10,36,10.00
2009,10,11,10,37,10.00
2009,10,11,10,38,10.00
2009,10,11,10,39,10.10
2009,10,11,10,40,10.10
2009,10,11,10,41,10.10
2009,10,11,10,42,10.10
2009,10,11,10,43,10.20
2009,10,11,10,44,10.20
2009,10,11,10,45,10.20
2009,10,11,10,46,10.20
2009,10,11,10,47,10.20
2009,10,11,10,48,10.20
2009,10,11,10,49,10.20
2009,10,11,10,50,10.20
2009,10,11,10,51,10.20
2009,10,11,10,52,10.20
2009,10,11,10,53,10.20
2009,10,11,10,54,10.20
2009,10,11,10,55,10.20
2009,10,11,10,56,10.20
2009,10,11,10,57,10.20
2009,10,11,10,58,10.20
2009,10,11,10,59,10.20
2009,10,11,11,00,10.20
2009,10,11,11,01,10.20
2009,10,11,11,02,10.30
2009,10,11,11,03,10.30
2009,10,11,11,04,10.30
2009,10,11,11,05,10.30
2009,10,11,11,06,10.40
2009,10,11,11,07,10.40
2009,10,11,11,08,10.40
2009,10,11,11,09,10.40
2009,10,11,11,10,10.40
2009,10,11,11,11,10.50
2009,10,11,11,12,10.50
2009,10,11,11,13,10.60
2009,10,11,11,14,10.60
2009,10,11,11,15,10.70
2009,10,11,11,16,10.70
2009,10,11,11,17,10.80
2009,10,11,11,18,10.80
2009,10,11,11,19,10.80
2009,10,11,11,20,10.80
2009,10,11,11,21,10.80
2009,10,11,11,22,10.80
2009,10,11,11,23,10.80
2009,10,11,11,24,10.80
2009,10,11,11,25,10.80
2009,10,11,11,26,10.80
2009,10,11,11,27,10.80
2009,10,11,11,28,10.90
2009,10,11,11,29,10.90
2009,10,11,11,30,11.00
2009,10,11,11,31,11.10
2009,10,11,11,32,11.10
2009,10,11,11,33,11.20
2009,10,11,11,34,11.20
2009,10,11,11,35,11.20
2009,10,11,11,36,11.20
2009,10,11,11,37,11.20
2009,10,11,11,38,11.10
2009,10,11,11,39,11.10
2009,10,11,11,40,11.00
2009,10,11,11,41,10.90
2009,10,11,11,42,10.80
2009,10,11,11,43,10.90
2009,10,11,11,44,10.90
2009,10,11,11,45,10.90
2009,10,11,11,46,10.90
2009,10,11,11,47,10.90
2009,10,11,11,48,11.00
2009,10,11,11,49,11.10
2009,10,11,11,50,11.10
2009,10,11,11,51,11.10
2009,10,11,11,52,11.10
2009,10,11,11,53,11.10
2009,10,11,11,54,11.10
2009,10,11,11,55,11.10
2009,10,11,11,56,11.20
2009,10,11,11,57,11.20
2009,10,11,11,58,11.10
2009,10,11,11,59,11.10
2009,10,11,12,00,11.10
2009,10,11,12,01,11.20
2009,10,11,12,02,11.20
2009,10,11,12,03,11.20
2009,10,11,12,04,11.20
2009,10,11,12,05,11.30
2009,10,11,12,06,11.20
2009,10,11,12,07,11.20
2009,10,11,12,08,11.20
2009,10,11,12,09,11.20
2009,10,11,12,10,11.20
2009,10,11,12,11,11.20
2009,10,11,12,12,11.20
2009,10,11,12,13,11.30
2009,10,11,12,14,11.30
2009,10,11,12,15,11.30
2009,10,11,12,16,11.30
2009,10,11,12,17,11.40
2009,10,11,12,18,11.40
2009,10,11,12,19,11.30
2009,10,11,12,20,11.30
2009,10,11,12,21,11.30
2009,10,11,12,22,11.30
2009,10,11,12,23,11.30
2009,10,11,12,24,11.30
2009,10,11,12,25,11.30
2009,10,11,12,26,11.30
2009,10,11,12,27,11.30
2009,10,11,12,28,11.30
2009,10,11,12,29,11.30
2009,10,11,12,30,11.30
2009,10,11,12,31,11.30
2009,10,11,12,32,11.30
2009,10,11,12,33,11.30
2009,10,11,12,34,11.30
2009,10,11,12,35,11.30
2009,10,11,12,36,11.30
2009,10,11,12,37,11.30
2009,10,11,12,38,11.30
2009,10,11,12,39,11.30
2009,10,11,12,40,11.30
2009,10,11,12,41,11.30
2009,10,11,12,42,11.30
2009,10,11,12,43,11.40
2009,10,11,12,44,11.40
2009,10,11,12,45,11.50
2009,10,11,12,46,11.50
2009,10,11,12,47,11.50
2009,10,11,12,48,11.50
2009,10,11,12,49,11.50
2009,10,11,12,50,11.60
2009,10,11,12,51,11.60
2009,10,11,12,52,11.60
2009,10,11,12,53,11.60
2009,10,11,12,54,11.60
2009,10,11,12,55,11.60
2009,10,11,12,56,11.70
2009,10,11,12,57,11.70
2009,10,11,12,58,11.70
2009,10,11,12,59,11.80
2009,10,11,13,00,11.80
2009,10,11,13,01,11.90
2009,10,11,13,02,12.00
2009,10,11,13,03,12.00
2009,10,11,13,04,12.10
2009,10,11,13,05,12.10
2009,10,11,13,06,12.10
2009,10,11,13,07,12.10
2009,10,11,13,08,12.10
2009,10,11,13,09,12.20
2009,10,11,13,10,12.20
2009,10,11,13,11,12.20
2009,10,11,13,12,12.20
2009,10,11,13,13,12.10
2009,10,11,13,14,12.10
2009,10,11,13,15,12.10
2009,10,11,13,16,12.20
2009,10,11,13,17,12.20
2009,10,11,13,18,12.30
2009,10,11,13,19,12.30
2009,10,11,13,20,12.30
2009,10,11,13,21,12.40
2009,10,11,13,22,12.40
2009,10,11,13,23,12.40
2009,10,11,13,24,12.30
2009,10,11,13,25,12.30
2009,10,11,13,26,12.30
2009,10,11,13,27,12.30
2009,10,11,13,28,12.30
2009,10,11,13,29,12.30
2009,10,11,13,30,12.30
2009,10,11,13,31,12.30
2009,10,11,13,32,12.40
2009,10,11,13,33,12.40
2009,10,11,13,34,12.40
2009,10,11,13,35,12.50
2009,10,11,13,36,12.50
2009,10,11,13,37,12.60
2009,10,11,13,38,12.50
2009,10,11,13,39,12.50
2009,10,11,13,40,12.60
2009,10,11,13,41,12.70
2009,10,11,13,42,12.60
2009,10,11,13,43,12.50
2009,10,11,13,44,12.50
2009,10,11,13,45,12.50
2009,10,11,13,46,12.50
2009,10,11,13,47,12.60
2009,10,11,13,48,12.60
2009,10,11,13,49,12.50
2009,10,11,13,50,12.50
2009,10,11,13,51,12.60
2009,10,11,13,52,12.60
2009,10,11,13,53,12.50
2009,10,11,13,54,12.50
2009,10,11,13,55,12.60
2009,10,11,13,56,12.60
2009,10,11,13,57,12.60
2009,10,11,13,58,12.60
2009,10,11,13,59,12.70
2009,10,11,14,00,12.70
2009,10,11,14,01,12.80
2009,10,11,14,02,12.80
2009,10,11,14,03,12.80
2009,10,11,14,04,12.90
2009,10,11,14,05,13.00
2009,10,11,14,06,13.00
2009,10,11,14,07,13.00
2009,10,11,14,08,12.90
2009,10,11,14,09,12.80
2009,10,11,14,10,12.70
2009,10,11,14,11,12.70
2009,10,11,14,12,12.60
2009,10,11,14,13,12.60
2009,10,11,14,14,12.50
2009,10,11,14,15,12.50
2009,10,11,14,16,12.60
2009,10,11,14,17,12.60
2009,10,11,14,18,12.60
2009,10,11,14,19,12.70
2009,10,11,14,20,12.60
2009,10,11,14,21,12.60
2009,10,11,14,22,12.50
2009,10,11,14,23,12.50
2009,10,11,14,24,12.50
2009,10,11,14,25,12.50
2009,10,11,14,26,12.50
2009,10,11,14,27,12.60
2009,10,11,14,28,12.70
2009,10,11,14,29,12.80
2009,10,11,14,30,12.90
2009,10,11,14,31,13.00
2009,10,11,14,32,13.00
2009,10,11,14,33,13.00
2009,10,11,14,34,13.00
2009,10,11,14,35,13.00
2009,10,11,14,36,13.00
2009,10,11,14,37,13.10
2009,10,11,14,38,13.10
2009,10,11,14,39,13.10
2009,10,11,14,40,13.10
2009,10,11,14,41,13.10
2009,10,11,14,42,13.10
2009,10,11,14,43,13.00
2009,10,11,14,44,12.90
2009,10,11,14,45,12.90
2009,10,11,14,46,12.80
2009,10,11,14,47,12.80
2009,10,11,14,48,12.80
2009,10,11,14,49,12.80
2009,10,11,14,50,12.80
2009,10,11,14,51,12.70
2009,10,11,14,52,12.70
2009,10,11,14,53,12.70
2009,10,11,14,54,12.80
2009,10,11,14,55,12.80
2009,10,11,14,56,12.90
2009,10,11,14,57,13.00
2009,10,11,14,58,13.10
2009,10,11,14,59,13.20
2009,10,11,15,00,13.20
2009,10,11,15,01,13.20
2009,10,11,15,02,13.10
2009,10,11,15,03,13.10
2009,10,11,15,04,13.10
2009,10,11,15,05,13.00
2009,10,11,15,06,13.00
2009,10,11,15,07,12.90
2009,10,11,15,08,12.90
2009,10,11,15,09,12.80
2009,10,11,15,10,12.70
2009,10,11,15,11,12.70
2009,10,11,15,12,12.60
2009,10,11,15,13,12.60
2009,10,11,15,14,12.50
2009,10,11,15,15,12.50
2009,10,11,15,16,12.50
2009,10,11,15,17,12.40
2009,10,11,15,18,12.40
2009,10,11,15,19,12.40
2009,10,11,15,20,12.40
2009,10,11,15,21,12.40
2009,10,11,15,22,12.40
2009,10,11,15,23,12.40
2009,10,11,15,24,12.40
2009,10,11,15,25,12.30
2009,10,11,15,26,12.30
2009,10,11,15,27,12.30
2009,10,11,15,28,12.30
2009,10,11,15,29,12.20
2009,10,11,15,30,12.20
2009,10,11,15,31,12.10
2009,10,11,15,32,12.10
2009,10,11,15,33,12.00
2009,10,11,15,34,12.00
2009,10,11,15,35,12.00
2009,10,11,15,36,11.90
2009,10,11,15,37,11.90
2009,10,11,15,38,11.90
2009,10,11,15,39,11.90
2009,10,11,15,40,11.80
2009,10,11,15,41,11.80
2009,10,11,15,42,11.80
2009,10,11,15,43,11.80
2009,10,11,15,44,11.80
2009,10,11,15,45,11.80
2009,10,11,15,46,11.80
2009,10,11,15,47,11.80
2009,10,11,15,48,11.80
2009,10,11,15,49,11.70
2009,10,11,15,50,11.70
2009,10,11,15,51,11.70
2009,10,11,15,52,11.70
2009,10,11,15,53,11.70
2009,10,11,15,54,11.60
2009,10,11,15,55,11.60
2009,10,11,15,56,11.60
2009,10,11,15,57,11.60
2009,10,11,15,58,11.60
2009,10,11,15,59,11.70
2009,10,11,16,00,11.70
2009,10,11,16,01,11.70
2009,10,11,16,02,11.70
2009,10,11,16,03,11.60
2009,10,11,16,04,11.60
2009,10,11,16,05,11.60
2009,10,11,16,06,11.60
2009,10,11,16,07,11.60
2009,10,11,16,08,11.60
2009,10,11,16,09,11.60
2009,10,11,16,10,11.60
2009,10,11,16,11,11.60
2009,10,11,16,12,11.60
2009,10,11,16,13,11.60
2009,10,11,16,14,11.60
2009,10,11,16,15,11.50
2009,10,11,16,16,11.50
2009,10,11,16,17,11.50
2009,10,11,16,18,11.50
2009,10,11,16,19,11.60
2009,10,11,16,20,11.50
2009,10,11,16,21,11.50
2009,10,11,16,22,11.50
2009,10,11,16,23,11.50
2009,10,11,16,24,11.40
2009,10,11,16,25,11.40
2009,10,11,16,26,11.40
2009,10,11,16,27,11.40
2009,10,11,16,28,11.40
2009,10,11,16,29,11.40
2009,10,11,16,30,11.40
2009,10,11,16,31,11.40
2009,10,11,16,32,11.40
2009,10,11,16,33,11.40
2009,10,11,16,34,11.40
2009,10,11,16,35,11.40
2009,10,11,16,36,11.40
2009,10,11,16,37,11.40
2009,10,11,16,38,11.40
2009,10,11,16,39,11.40
2009,10,11,16,40,11.40
2009,10,11,16,41,11.40
2009,10,11,16,42,11.40
2009,10,11,16,43,11.40
2009,10,11,16,44,11.40
2009,10,11,16,45,11.40
2009,10,11,16,46,11.40
2009,10,11,16,47,11.40
2009,10,11,16,48,11.40
2009,10,11,16,49,11.40
2009,10,11,16,50,11.30
2009,10,11,16,51,11.30
2009,10,11,16,52,11.30
2009,10,11,16,53,11.30
2009,10,11,16,54,11.30
2009,10,11,16,55,11.30
2009,10,11,16,56,11.30
2009,10,11,16,57,11.30
2009,10,11,16,58,11.30
2009,10,11,16,59,11.30
2009,10,11,17,00,11.30
2009,10,11,17,01,11.30
2009,10,11,17,02,11.30
2009,10,11,17,03,11.20
2009,10,11,17,04,11.20
2009,10,11,17,05,11.20
2009,10,11,17,06,11.20
2009,10,11,17,07,11.20
2009,10,11,17,08,11.20
2009,10,11,17,09,11.10
2009,10,11,17,10,11.10
2009,10,11,17,11,11.10
2009,10,11,17,12,11.10
2009,10,11,17,13,11.00
2009,10,11,17,14,11.00
2009,10,11,17,15,11.00
2009,10,11,17,16,11.00
2009,10,11,17,17,10.90
2009,10,11,17,18,10.90
2009,10,11,17,19,10.90
2009,10,11,17,20,10.90
2009,10,11,17,21,10.90
2009,10,11,17,22,10.90
2009,10,11,17,23,10.90
2009,10,11,17,24,10.90
2009,10,11,17,25,10.90
2009,10,11,17,26,10.90
2009,10,11,17,27,10.90
2009,10,11,17,28,10.90
2009,10,11,17,29,10.90
2009,10,11,17,30,10.90
2009,10,11,17,31,10.90
2009,10,11,17,32,10.80
2009,10,11,17,33,10.80
2009,10,11,17,34,10.80
2009,10,11,17,35,10.80
2009,10,11,17,36,10.80
2009,10,11,17,37,10.80
2009,10,11,17,38,10.80
2009,10,11,17,39,10.80
2009,10,11,17,40,10.80
2009,10,11,17,41,10.80
2009,10,11,17,42,10.80
2009,10,11,17,43,10.80
2009,10,11,17,44,10.80
2009,10,11,17,45,10.80
2009,10,11,17,46,10.70